Вернуться в каталог

STARLINK-4452

АктивенСвязьSSO
NORAD 53658·PAYLOAD·🇺🇸 United States

Запущен Aug 31, 2022 с Vandenberg Space Force Base

Loading…

Ближайшие Пролёты (ближайшие 24 часа)

TLE

СвежийSource: CelesTrak SupGP

Эпоха: Sep 15, 2026, 01:59 UTC

1 53658C 22105L   26258.08312500  .00071349  00000+0  22147-2 0  2588
2 53658  97.2846 134.8370 0001557  97.5666 244.0593 15.33405184    10

Отслеживайте STARLINK-4452 в реальном времени с AllMySat

Download on the App Store